Photometre #253[Standard_N] Modena AOT

File : 20220921_253.hum

21/09/2022,05:52:05,TEMP=11.4,BA=5.24,STAT.A
21/09/2022,05:52:19,TEMP=11.4,BA=5.24,STAT.s
21/09/2022,05:55:42,TEMP=11.7,BA=5.24,STAT.A
21/09/2022,05:55:55,TEMP=11.7,BA=5.24,STAT.s
21/09/2022,05:59:54,TEMP=11.9,BA=5.24,STAT.A
21/09/2022,06:00:08,TEMP=11.9,BA=5.28,STAT.s
21/09/2022,06:04:56,TEMP=12.0,BA=5.28,STAT.A
21/09/2022,06:05:09,TEMP=12.0,BA=5.28,STAT.s
21/09/2022,06:10:58,TEMP=12.3,BA=5.32,STAT.A
21/09/2022,06:11:10,TEMP=12.3,BA=5.32,STAT.s
21/09/2022,06:18:24,TEMP=12.9,BA=5.32,STAT.A
21/09/2022,06:18:36,TEMP=12.9,BA=5.32,STAT.s
21/09/2022,06:27:50,TEMP=13.5,BA=5.32,STAT.B
21/09/2022,06:28:11,TEMP=13.5,BA=5.32,STAT.s
21/09/2022,06:32:21,TEMP=13.9,BA=5.36,STAT.A
21/09/2022,06:32:33,TEMP=13.9,BA=5.36,STAT.s
21/09/2022,06:37:24,TEMP=14.4,BA=5.36,STAT.A
21/09/2022,06:37:45,TEMP=14.4,BA=5.36,STAT.s
21/09/2022,06:43:10,TEMP=15.1,BA=5.44,STAT.A
21/09/2022,06:43:31,TEMP=15.1,BA=5.44,STAT.s
21/09/2022,06:49:35,TEMP=16.0,BA=5.44,STAT.A
21/09/2022,06:49:46,TEMP=16.0,BA=5.44,STAT.s
21/09/2022,06:57:02,TEMP=16.6,BA=5.44,STAT.C
21/09/2022,06:57:14,TEMP=16.6,BA=5.44,STAT.s
21/09/2022,07:05:42,TEMP=17.5,BA=5.48,STAT.A
21/09/2022,07:06:04,TEMP=17.5,BA=5.48,STAT.s
21/09/2022,07:15:56,TEMP=18.5,BA=5.52,STAT.A
21/09/2022,07:16:07,TEMP=18.5,BA=5.52,STAT.s
21/09/2022,07:28:14,TEMP=18.1,BA=5.44,STAT.A
21/09/2022,07:43:24,TEMP=16.6,BA=5.44,STAT.A
21/09/2022,08:02:44,TEMP=15.9,BA=5.52,STAT.B
21/09/2022,08:04:04,TEMP=16.0,BA=5.52,STAT.s
21/09/2022,08:10:00,TEMP=16.2,BA=5.52,STAT.F
21/09/2022,08:11:19,TEMP=16.3,BA=5.60,STAT.s
21/09/2022,08:24:59,TEMP=16.4,BA=5.60,STAT.D
21/09/2022,08:39:59,TEMP=16.8,BA=5.48,STAT.D
21/09/2022,08:40:33,TEMP=16.8,BA=5.48,STAT.s
21/09/2022,08:55:01,TEMP=17.3,BA=5.56,STAT.D
21/09/2022,08:56:06,TEMP=17.3,BA=5.56,STAT.s
21/09/2022,09:10:00,TEMP=17.8,BA=5.56,STAT.F
21/09/2022,09:10:32,TEMP=17.8,BA=5.60,STAT.s
21/09/2022,09:25:00,TEMP=17.9,BA=5.56,STAT.D
21/09/2022,09:40:00,TEMP=17.6,BA=5.56,STAT.D
21/09/2022,09:40:31,TEMP=17.6,BA=5.60,STAT.s
21/09/2022,09:55:00,TEMP=17.8,BA=5.60,STAT.D
21/09/2022,10:10:00,TEMP=17.8,BA=5.56,STAT.F
21/09/2022,10:25:01,TEMP=18.2,BA=5.64,STAT.D
21/09/2022,10:25:34,TEMP=18.2,BA=5.64,STAT.s
21/09/2022,10:40:01,TEMP=18.7,BA=5.64,STAT.D
21/09/2022,10:55:01,TEMP=20.1,BA=5.64,STAT.D
21/09/2022,11:10:01,TEMP=21.6,BA=5.64,STAT.E
21/09/2022,11:25:01,TEMP=22.7,BA=5.64,STAT.D
21/09/2022,11:40:01,TEMP=22.9,BA=5.64,STAT.D
21/09/2022,11:55:01,TEMP=22.9,BA=5.64,STAT.D
21/09/2022,12:10:01,TEMP=22.8,BA=5.64,STAT.F
21/09/2022,12:25:01,TEMP=23.0,BA=5.64,STAT.D
21/09/2022,12:40:01,TEMP=23.2,BA=5.64,STAT.D
21/09/2022,12:55:01,TEMP=22.6,BA=5.56,STAT.D
21/09/2022,13:10:01,TEMP=22.8,BA=5.64,STAT.F
21/09/2022,13:25:01,TEMP=22.9,BA=5.64,STAT.D
21/09/2022,13:40:00,TEMP=22.9,BA=5.52,STAT.D
21/09/2022,13:55:01,TEMP=23.3,BA=5.52,STAT.D
21/09/2022,14:10:00,TEMP=23.4,BA=5.48,STAT.F
21/09/2022,14:21:23,TEMP=23.0,BA=5.48,STAT.B
21/09/2022,14:36:36,TEMP=22.6,BA=5.48,STAT.A
21/09/2022,14:51:46,TEMP=22.7,BA=5.52,STAT.A
21/09/2022,15:04:04,TEMP=22.6,BA=5.52,STAT.A
21/09/2022,15:14:19,TEMP=22.4,BA=5.52,STAT.A
21/09/2022,15:22:59,TEMP=22.4,BA=5.52,STAT.C
21/09/2022,15:34:01,TEMP=22.2,BA=5.52,STAT.A
21/09/2022,15:36:55,TEMP=22.1,BA=5.52,STAT.A
21/09/2022,15:42:36,TEMP=22.0,BA=5.48,STAT.A
21/09/2022,15:47:39,TEMP=22.0,BA=5.48,STAT.A
21/09/2022,15:52:10,TEMP=21.9,BA=5.48,STAT.B
21/09/2022,16:01:36,TEMP=21.8,BA=5.44,STAT.A
21/09/2022,16:09:03,TEMP=21.6,BA=5.44,STAT.A
21/09/2022,16:15:05,TEMP=21.5,BA=5.48,STAT.A
21/09/2022,16:20:06,TEMP=21.4,BA=5.48,STAT.A
21/09/2022,16:24:20,TEMP=21.2,BA=5.48,STAT.A
21/09/2022,16:27:55,TEMP=21.1,BA=5.48,STAT.A